OE5RLP-14 Weather Reports


Display with metric or nautical units.
time (UTC)temp
F
wind
direction
speed
MPH
gust
MPH
rain 1hr
in
rain 24hr
in
rain mn
in
humidity
%
barometer
mb
20260507044431 52 215 2.0 3.0 0.00 0.03 0.00 73 1013.7
20260507043429 52 265 2.0 3.0 0.00 0.03 0.00 73 1013.6
20260507042426 51 240 2.0 2.0 0.00 0.03 0.00 75 1013.6
20260507041424 51 220 2.0 4.0 0.00 0.03 0.00 76 1013.5
20260507040420 51 192 2.0 2.0 0.00 0.03 0.00 76 1013.4
20260507035430 51 267 3.0 4.0 0.00 0.03 0.00 76 1013.1
20260507034446 51 201 2.0 2.0 0.00 0.03 0.00 77 1013.1
20260507033442 51 229 1.0 2.0 0.00 0.03 0.00 77 1012.9
20260507032439 51 283 2.0 3.0 0.00 0.03 0.00 76 1012.8
20260507031458 52 269 1.0 3.0 0.00 0.03 0.00 76 1013.0
20260507030435 52 269 5.0 9.0 0.00 0.03 0.00 75 1013.0
20260507025431 52 293 2.0 4.0 0.00 0.03 0.00 76 1012.8
20260507024433 52 256 5.0 7.0 0.00 0.03 0.00 77 1012.8
20260507023429 52 170 1.0 2.0 0.00 0.03 0.00 77 1012.6
20260507022430 52 226 2.0 2.0 0.00 0.03 0.00 77 1012.8
20260507021429 52 255 2.0 2.0 0.00 0.03 0.00 77 1012.4
20260507020428 52 270 2.0 4.0 0.00 0.03 0.00 77 1012.6
20260507015505 52 285 4.0 9.0 0.00 0.03 0.00 78 1012.6
20260507014442 51 265 2.0 3.0 0.00 0.03 0.00 78 1012.6
20260507013439 52 259 2.0 4.0 0.00 0.03 0.00 78 1012.7
20260507012436 52 265 1.0 1.0 0.00 0.03 0.00 76 1012.1
20260507011435 52 254 4.0 7.0 0.00 0.03 0.00 75 1012.2
20260507010430 53 287 8.0 14.0 0.00 0.03 0.00 73 1012.1
20260507005428 53 299 3.0 6.0 0.00 0.03 0.00 74 1012.2
20260507004426 53 267 5.0 9.0 0.00 0.03 0.00 74 1012.2
20260507003429 52 267 1.0 2.0 0.00 0.03 0.00 76 1012.1
20260507002428 52 219 5.0 8.0 0.00 0.03 0.00 77 1012.1
20260507001429 52 235 1.0 3.0 0.00 0.03 0.00 78 1012.3
20260507000445 52 263 2.0 6.0 0.00 0.03 0.00 79 1012.1
20260506235502 52 279 3.0 6.0 0.00 0.03 0.00 80 1012.2
20260506234438 52 263 6.0 10.0 0.00 0.03 0.00 80 1012.5
20260506233457 52 267 4.0 6.0 0.00 0.03 0.00 80 1012.1
20260506232433 52 209 5.0 8.0 0.00 0.03 0.00 81 1012.1
20260506231430 52 271 5.0 8.0 0.00 0.03 0.00 82 1012.0
20260506230429 52 261 4.0 6.0 0.00 0.03 0.00 83 1012.0
20260506225429 52 252 2.0 3.0 0.00 0.03 0.00 84 1012.0
20260506224431 52 271 2.0 4.0 0.00 0.03 0.00 85 1011.8
20260506223507 52 271 2.0 4.0 0.00 0.03 0.00 86 1011.7
20260506222434 52 285 4.0 7.0 0.00 0.03 0.00 86 1011.8
20260506221443 51 274 4.0 7.0 0.00 0.03 0.00 88 1011.6
20260506220441 51 225 3.0 7.0 0.00 0.03 0.00 90 1011.7
20260506215458 51 269 5.0 7.0 0.01 0.03 0.03 91 1011.7
20260506214435 52 293 6.0 8.0 0.01 0.03 0.03 91 1011.4
20260506213433 52 251 3.0 4.0 0.02 0.03 0.03 94 1011.4
20260506212452 52 285 3.0 6.0 0.03 0.03 0.03 94 1011.2
20260506211429 52 272 5.0 7.0 0.03 0.03 0.03 94 1011.2
20260506210429 52 290 7.0 13.0 0.03 0.03 0.03 93 1010.9
20260506205430 52 282 8.0 10.0 0.02 0.02 0.02 93 1010.6
20260506204431 53 287 12.0 17.0 0.02 0.02 0.02 92 1010.7
20260506203429 54 302 12.0 19.0 0.01 0.01 0.01 90 1010.5
20260506202444 55 282 15.0 35.0 0.00 0.00 0.00 86 1010.1
20260506201441 56 283 12.0 16.0 0.00 0.00 0.00 84 1009.7
20260506200439 57 291 11.0 15.0 0.00 0.00 0.00 82 1009.6
20260506195435 57 282 15.0 25.0 0.00 0.00 0.00 80 1009.4
20260506194433 58 301 12.0 21.0 0.00 0.00 0.00 76 1008.8
20260506193430 58 290 6.0 11.0 0.00 0.00 0.00 74 1009.0
20260506192429 58 283 10.0 17.0 0.00 0.00 0.00 72 1008.6
20260506191429 59 283 5.0 9.0 0.00 0.00 0.00 69 1008.2
20260506190429 59 294 6.0 10.0 0.00 0.00 0.00 68 1008.3
20260506185427 59 288 12.0 15.0 0.00 0.00 0.00 68 1008.2
20260506184444 59 294 10.0 14.0 0.00 0.00 0.00 68 1007.8
20260506183444 59 291 10.0 13.0 0.00 0.00 0.00 67 1007.4
20260506182442 60 293 10.0 13.0 0.00 0.00 0.00 65 1007.2
20260506181438 63 280 13.0 16.0 0.00 0.00 0.00 58 1006.3
20260506180435 67 212 5.0 10.0 0.00 0.00 0.00 47 1005.4
20260506175432 67 171 6.0 14.0 0.00 0.00 0.00 47 1004.7
20260506174430 68 158 10.0 18.0 0.00 0.00 0.00 46 1004.3
20260506173429 68 190 11.0 19.0 0.00 0.00 0.00 46 1003.9
20260506172429 69 213 14.0 24.0 0.00 0.00 0.00 45 1003.6
20260506171427 69 225 9.0 17.0 0.00 0.00 0.00 44 1003.4
20260506170427 70 160 10.0 16.0 0.00 0.00 0.00 45 1003.2
20260506165443 70 182 11.0 21.0 0.00 0.00 0.00 44 1003.4
20260506164443 70 146 10.0 14.0 0.00 0.00 0.00 45 1003.6
20260506163502 69 170 8.0 16.0 0.00 0.00 0.00 46 1003.8
20260506162459 69 250 7.0 10.0 0.00 0.00 0.00 45 1003.7
20260506161434 69 192 11.0 23.0 0.00 0.00 0.00 46 1003.7
20260506160433 69 189 9.0 15.0 0.00 0.00 0.00 47 1004.0
20260506155449 69 226 6.0 8.0 0.00 0.00 0.00 46 1004.1
20260506154427 70 188 10.0 16.0 0.00 0.00 0.00 44 1004.1
20260506153427 70 215 11.0 19.0 0.00 0.00 0.00 45 1004.0
20260506152427 70 181 11.0 19.0 0.00 0.00 0.00 44 1004.4
20260506151428 70 212 9.0 15.0 0.00 0.00 0.00 45 1004.6
20260506150504 71 192 8.0 15.0 0.00 0.00 0.00 45 1004.6
20260506145441 71 125 5.0 14.0 0.00 0.00 0.00 45 1004.8
20260506144439 71 202 4.0 7.0 0.00 0.00 0.00 45 1005.0
20260506143436 71 187 8.0 14.0 0.00 0.00 0.00 47 1005.0
20260506142433 71 258 2.0 6.0 0.00 0.00 0.00 47 1005.2
20260506141430 71 185 4.0 6.0 0.00 0.00 0.00 46 1005.1
20260506140427 70 121 4.0 8.0 0.00 0.00 0.00 50 1005.2
20260506135525 70 95 4.0 6.0 0.00 0.00 0.00 55 1005.2
20260506134428 70 94 7.0 11.0 0.00 0.00 0.00 54 1005.3
20260506133445 70 13 6.0 10.0 0.00 0.00 0.00 52 1005.4
20260506132443 71 72 4.0 4.0 0.00 0.00 0.00 52 1005.2
20260506131443 71 93 7.0 11.0 0.00 0.00 0.00 54 1005.9
20260506130442 73 88 5.0 9.0 0.00 0.00 0.00 51 1005.8
20260506125439 73 54 5.0 7.0 0.00 0.00 0.00 51 1006.0
20260506124436 73 20 5.0 7.0 0.00 0.00 0.00 52 1006.2
20260506123433 71 338 6.0 8.0 0.00 0.00 0.00 56 1006.5
20260506122429 71 40 3.0 4.0 0.00 0.00 0.00 53 1006.4
20260506121449 71 255 0.0 1.0 0.00 0.00 0.00 58 1006.5
20260506120448 70 84 7.0 9.0 0.00 0.00 0.00 60 1006.7
20260506115427 69 28 3.0 7.0 0.00 0.00 0.00 61 1006.9
20260506114446 69 30 6.0 9.0 0.00 0.00 0.00 60 1007.0
20260506113445 67 7 4.0 4.0 0.00 0.00 0.00 64 1007.2
20260506112444 67 99 8.0 15.0 0.00 0.00 0.00 67 1007.3
20260506111441 66 81 6.0 10.0 0.00 0.00 0.00 67 1007.5
20260506110438 66 61 4.0 7.0 0.00 0.00 0.00 64 1007.7
20260506105434 65 93 5.0 7.0 0.00 0.00 0.00 69 1007.9
20260506104430 64 53 2.0 3.0 0.00 0.00 0.00 70 1008.1
20260506103428 64 84 3.0 4.0 0.00 0.00 0.00 71 1008.1
20260506102428 64 98 4.0 4.0 0.00 0.00 0.00 70 1008.1
20260506101428 64 101 3.0 3.0 0.00 0.00 0.00 71 1008.4
20260506100427 64 96 2.0 3.0 0.00 0.00 0.00 70 1008.5
20260506095428 64 71 1.0 2.0 0.00 0.00 0.00 69 1008.5
20260506094504 64 88 8.0 11.0 0.00 0.00 0.00 68 1008.6
20260506093501 64 74 4.0 7.0 0.00 0.00 0.00 67 1008.8
20260506092442 63 94 4.0 4.0 0.00 0.00 0.00 69 1008.7
20260506091515 62 84 2.0 3.0 0.00 0.00 0.00 69 1009.1
20260506090434 62 88 8.0 10.0 0.00 0.00 0.00 70 1008.9
20260506085431 62 80 3.0 6.0 0.00 0.00 0.00 70 1008.9
20260506084428 62 81 2.0 3.0 0.00 0.00 0.00 68 1009.3
20260506083427 62 109 3.0 3.0 0.00 0.00 0.00 69 1009.1
20260506082428 61 46 3.0 4.0 0.00 0.00 0.00 69 1009.2
20260506081427 61 323 2.0 3.0 0.00 0.00 0.00 67 1009.1
20260506080426 61 332 4.0 6.0 0.00 0.00 0.00 70 1008.9
20260506073439 60 108 3.0 3.0 0.00 0.00 0.00 69 1009.6
20260506072435 61 82 3.0 4.0 0.00 0.00 0.00 68 1009.6
20260506071431 60 45 2.0 2.0 0.00 0.00 0.00 69 1009.5
20260506070429 61 60 3.0 6.0 0.00 0.00 0.00 70 1009.5
20260506062427 60 141 2.0 3.0 0.00 0.00 0.00 72 1009.9
20260506061446 60 0.0 0.0 0.00 0.00 0.00 70 1009.8
20260506060442 61 0.0 0.0 0.00 0.00 0.00 68 1009.9
20260506050428 56 159 1.0 2.0 0.00 0.00 0.00 74 1010.3